Participated 1 time
in 1988
Ricardo Martinez, Spain
Tour de France 2026 starts from Barcelona, Spain in

Stats and Facts from
Tour de France.

2026   2025   2024   2023  2022  2021  2020  2019   2018  2017   2016   2015  2014  2013   2012   2011  2010   2009   2008   2007   2006   2005   2004   2003   2002   2001   2000   1999   1998   1997  1996   1995   1994   1993   1992  1991   1990   1989   1988   1987   1986   1985   1984   1983  1982  1981   1980   1979  1978  1977   1976  1975  1974  1973   1972   1971   1970  1969   1968   1967   1966   1965  1964  1963   1962   1961   1960   1959   1958   1957  1956   1955   1954   1953   1952  1951  1950  1949   1948  1947  1939   1938   1937   1936   1935   1934   1933  1932   1931   1930  1929   1928   1927   1926  1925  1924  1923   1922   1921   1920   1919  1914   1913   1912   1911   1910  1909   1908   1907   1906  1905  1904   1903 

Tourstats
Sitemap

After stage 21 - 2025:
 16451 starters.
  5463 different riders.
  689 teams.
  2398 stages.
  470 restdays.
  466506.50 km.
  5925 abandoned riders.

Click map for 2006 route.
Facts from Tour de France 2006
  |   Stages.  |   Stage winners.  |   Days in jerseys.  |   Teams.  |   All riders.  |   All riders by age.  |   All riders from.  |  

  |   Rookies.  |   Withdrawls.  |   Average speed.  |   GC.  |   Polka  |   Green  |   White  |   Summits. (In tour)  |   Miscellaneous.  |  

Stage 17 on July 20th. 2006
Pick a stage:  Pro  1  2  3  4  5  6  7  8  9  10  11  12  13  14  15  16  17  18  19  20  

After stage 17:    Óscar Pereiro  
  Saint-Jean-de-MaurienneMorzine-Avoriaz | Dist: 200.50km. | Winner: Floyd Landis

Podium
1  Col des Saisies Patrice Halgandafter82.50 km.

2  Col de l'Aravis - Thônes Patrice Halgandafter109.00 km.

3  Côte de Chatillon sur Cluses Floyd Landisafter162.00 km.

1  Col de la Colombiere  Floyd Landisafter134.00 km.

HC  Col de Joux-Plane Floyd Landisafter188.50 km.


Average speed for all riders in stage:  33,227 km./hr.

1
 Floyd Landis  Phonak Hearing Systems05h 23' 36"=37,176  km/h

2
 Carlos Sastre  CSC05h 29' 18"+  00:05:42 =36,532  km/h

3
 Christophe Moreau  AG2R-Decathlon05h 29' 34"+  00:05:58 =36,502  km/h

4  Damiano Cunego  Lampre-Fondital05h 30' 16"+  00:06:40 =36,425  km/h

5  Michael Boogerd  Rabobank05h 30' 44"+  00:07:08 =36,374  km/h

6  Fränk Schleck  CSC05h 30' 44"+  00:07:08 =36,374  km/h

7  Óscar Pereiro  Illes Balears-Caisse d Epargne05h 30' 44"+  00:07:08 =36,374  km/h

8  Andréas  Klöden  T-Mobile05h 30' 44"+  00:07:08 =36,374  km/h

9  Haimar  Zubeldía  Euskaltel-Euskadi05h 30' 44"+  00:07:08 =36,374  km/h

10  Cadel Evans  Davitamon-Lotto05h 30' 56"+  00:07:20 =36,352  km/h

11  Michael Rasmussen  Rabobank05h 31' 00"+  00:07:24 =36,344  km/h

12  Denis Menchov  Rabobank05h 31' 00"+  00:07:24 =36,344  km/h

13  Patrik Sinkewitz  T-Mobile05h 31' 00"+  00:07:24 =36,344  km/h

14  Tadej Valjavec  Lampre-Fondital05h 32' 13"+  00:08:37 =36,211  km/h

15  Giuseppe Guerini  T-Mobile05h 32' 13"+  00:08:37 =36,211  km/h

16  Cyril Dessel  AG2R-Decathlon05h 32' 25"+  00:08:49 =36,190  km/h

17  Jose Luis Arrieta  AG2R-Decathlon05h 33' 03"+  00:09:27 =36,121  km/h

18  Markus Fothen  Gerolsteiner05h 33' 03"+  00:09:27 =36,121  km/h

19  Eddy Mazzoleni  T-Mobile05h 33' 03"+  00:09:27 =36,121  km/h

20  Marzio Bruseghin  Lampre-Fondital05h 33' 03"+  00:09:27 =36,121  km/h

21  Pietro Caucchioli  Credit Agricole05h 33' 03"+  00:09:27 =36,121  km/h

22  Michael Rogers  T-Mobile05h 36' 10"+  00:12:34 =35,786  km/h

23  Francisco Javier Vila  Lampre-Fondital05h 37' 13"+  00:13:37 =35,674  km/h

24  David De La Fuente  Saunier Duval-Prodir05h 37' 13"+  00:13:37 =35,674  km/h

25  Cristian Moreni  Cofidis Credit Par Telephone05h 38' 11"+  00:14:35 =35,572  km/h

26  Pierrick  Fédrigo  Bouygues Telecom05h 39' 15"+  00:15:39 =35,461  km/h

27  Mikel Astarloza  AG2R-Decathlon05h 39' 25"+  00:15:49 =35,443  km/h

28  David Arroyo  Illes Balears-Caisse d Epargne05h 39' 25"+  00:15:49 =35,443  km/h

29  Salvatore Commesso  Lampre-Fondital05h 41' 03"+  00:17:27 =35,273  km/h

30  Patrice Halgand  Credit Agricole05h 43' 29"+  00:19:53 =35,024  km/h

31  Egoi Martínez  Discovery Channel05h 44' 59"+  00:21:23 =34,871  km/h

32  Yaroslav Popovych  Discovery Channel05h 44' 59"+  00:21:23 =34,871  km/h

33  Jens Voigt  CSC05h 44' 59"+  00:21:23 =34,871  km/h

34  José Azevedo  Discovery Channel05h 44' 59"+  00:21:23 =34,871  km/h

35  Christian Vandevelde  CSC05h 44' 59"+  00:21:23 =34,871  km/h

36  George Hincapie  Discovery Channel05h 44' 59"+  00:21:23 =34,871  km/h

37  Stuart O'Grady  CSC05h 44' 59"+  00:21:23 =34,871  km/h

38  Levi Leipheimer  Gerolsteiner05h 44' 59"+  00:21:23 =34,871  km/h

39  Paolo Tiralongo  Lampre-Fondital05h 44' 59"+  00:21:23 =34,871  km/h

40  Christopher Horner  Davitamon-Lotto05h 49' 42"+  00:26:06 =34,401  km/h

41  Matthias Kessler  T-Mobile05h 54' 39"+  00:31:03 =33,921  km/h

42  Serhiy Honchar  T-Mobile05h 54' 39"+  00:31:03 =33,921  km/h

43  Pavel Padrnos  Discovery Channel05h 54' 48"+  00:31:12 =33,906  km/h

44  Iker Camaño  Euskaltel-Euskadi05h 54' 48"+  00:31:12 =33,906  km/h

45  Xabier Zandio  Illes Balears-Caisse d Epargne05h 54' 48"+  00:31:12 =33,906  km/h

46  Stéphane Goubert  AG2R-Decathlon05h 54' 48"+  00:31:12 =33,906  km/h

47  Laurent Lefèvre  Bouygues Telecom05h 54' 48"+  00:31:12 =33,906  km/h

48  Matthieu Sprick  Bouygues Telecom05h 54' 48"+  00:31:12 =33,906  km/h

49  Alessandro Ballan  Lampre-Fondital05h 55' 58"+  00:32:22 =33,795  km/h

50  Juan Manuel Garate  Quick Step-Innergetic05h 55' 58"+  00:32:22 =33,795  km/h

51  Bram Tankink  Quick Step-Innergetic05h 55' 58"+  00:32:22 =33,795  km/h

52  Daniele Righi  Lampre-Fondital05h 55' 58"+  00:32:22 =33,795  km/h

53  David Lopez  Euskaltel-Euskadi05h 55' 58"+  00:32:22 =33,795  km/h

54  Philippe Gilbert  Francaise Des Jeux05h 56' 41"+  00:33:05 =33,727  km/h

55  Stéphane Auge  Cofidis Credit Par Telephone05h 56' 41"+  00:33:05 =33,727  km/h

56  Stefano Garzelli  Liquigas06h 00' 05"+  00:36:29 =33,409  km/h

57  Luca Paolini  Liquigas06h 00' 05"+  00:36:29 =33,409  km/h

58  Anthony Charteau  Credit Agricole06h 01' 03"+  00:37:27 =33,319  km/h

59  Christophe Le Mevel  Credit Agricole06h 01' 03"+  00:37:27 =33,319  km/h

60  David Millar  Saunier Duval-Prodir06h 07' 20"+  00:43:44 =32,750  km/h

61  Sandy Casar  Francaise Des Jeux06h 07' 20"+  00:43:44 =32,750  km/h

62  Robbie McEwen  Davitamon-Lotto06h 15' 38"+  00:52:02 =32,026  km/h

63  Bernhard Eisel  Francaise Des Jeux06h 15' 38"+  00:52:02 =32,026  km/h

64  Manuel Quinziato  Liquigas06h 15' 38"+  00:52:02 =32,026  km/h

65  Marco Velo  Milram06h 15' 38"+  00:52:02 =32,026  km/h

66  Walter Bénéteau  Bouygues Telecom06h 15' 38"+  00:52:02 =32,026  km/h

67  Axel Merckx  Phonak Hearing Systems06h 15' 38"+  00:52:02 =32,026  km/h

68  Didier Rous  Bouygues Telecom06h 15' 38"+  00:52:02 =32,026  km/h

69  Kjell Carlström  Liquigas06h 15' 38"+  00:52:02 =32,026  km/h

70  Filippo Pozzato  Quick Step-Innergetic06h 15' 38"+  00:52:02 =32,026  km/h

71  Mario Aerts  Davitamon-Lotto06h 15' 38"+  00:52:02 =32,026  km/h

72  Johan Vansummeren  Davitamon-Lotto06h 15' 38"+  00:52:02 =32,026  km/h

73  Matej Mugerli  Liquigas06h 15' 38"+  00:52:02 =32,026  km/h

74  Alexandre Botcharov  Credit Agricole06h 15' 38"+  00:52:02 =32,026  km/h

75  Robert Hunter  Phonak Hearing Systems06h 15' 38"+  00:52:02 =32,026  km/h

76  Erik Zabel  Milram06h 15' 38"+  00:52:02 =32,026  km/h

77  Joost Posthuma  Rabobank06h 15' 38"+  00:52:02 =32,026  km/h

78  Sebastian Lang  Gerolsteiner06h 15' 38"+  00:52:02 =32,026  km/h

79  Bert Grabsch  Phonak Hearing Systems06h 15' 38"+  00:52:02 =32,026  km/h

80  Georg Totschnig  Gerolsteiner06h 15' 38"+  00:52:02 =32,026  km/h

81  Koos Moerenhout  Phonak Hearing Systems06h 15' 38"+  00:52:02 =32,026  km/h

82  Thomas Löfkvist  Francaise Des Jeux06h 15' 38"+  00:52:02 =32,026  km/h

83  Benoit Vaugrenard  Francaise Des Jeux06h 15' 38"+  00:52:02 =32,026  km/h

84  Sylvain Calzati  AG2R-Decathlon06h 15' 38"+  00:52:02 =32,026  km/h

85  Christophe Brandt  Davitamon-Lotto06h 15' 38"+  00:52:02 =32,026  km/h

86  Gorka Verdugo  Euskaltel-Euskadi06h 15' 38"+  00:52:02 =32,026  km/h

87  Anthony Geslin  Bouygues Telecom06h 15' 38"+  00:52:02 =32,026  km/h

88  Ralf Grabsch  Milram06h 15' 38"+  00:52:02 =32,026  km/h

89  Viatcheslav Ekimov  Discovery Channel06h 15' 38"+  00:52:02 =32,026  km/h

90  Unai Etxebarria  Euskaltel-Euskadi06h 15' 38"+  00:52:02 =32,026  km/h

91  Gustav-Erik Larsson  Francaise Des Jeux06h 15' 38"+  00:52:02 =32,026  km/h

92  Jérôme Pineau  Bouygues Telecom06h 15' 38"+  00:52:02 =32,026  km/h

93  Benoit Salmon  Agritubel06h 15' 38"+  00:52:02 =32,026  km/h

94  Christian Knees  Milram06h 15' 38"+  00:52:02 =32,026  km/h

95  Manuel Calvente  Agritubel06h 15' 38"+  00:52:02 =32,026  km/h

96  Riccardo Riccò  Saunier Duval-Prodir06h 15' 38"+  00:52:02 =32,026  km/h

97  Pieter Weening  Rabobank06h 15' 38"+  00:52:02 =32,026  km/h

98  Alexandre Moos  Phonak Hearing Systems06h 15' 38"+  00:52:02 =32,026  km/h

99  Björn Schröder  Milram06h 15' 38"+  00:52:02 =32,026  km/h

100  Iñaki Isasi  Euskaltel-Euskadi06h 15' 38"+  00:52:02 =32,026  km/h

101  Nicolas Jalabert  Phonak Hearing Systems06h 15' 38"+  00:52:02 =32,026  km/h

102  Carlos Da Cruz  Francaise Des Jeux06h 15' 38"+  00:52:02 =32,026  km/h

103  Sylvain Chavanel  Cofidis Credit Par Telephone06h 15' 38"+  00:52:02 =32,026  km/h

104  Jimmy Casper  Cofidis Credit Par Telephone06h 15' 38"+  00:52:02 =32,026  km/h

105  Christophe Laurent  Agritubel06h 15' 38"+  00:52:02 =32,026  km/h

106  Fabian Wegmann  Gerolsteiner06h 15' 38"+  00:52:02 =32,026  km/h

107  Simon Gerrans  AG2R-Decathlon06h 15' 38"+  00:52:02 =32,026  km/h

108  Thomas  Voeckler  Bouygues Telecom06h 15' 38"+  00:52:02 =32,026  km/h

109  Patrick Calcagni  Liquigas06h 15' 38"+  00:52:02 =32,026  km/h

110  Michael Albasini  Liquigas06h 15' 38"+  00:52:02 =32,026  km/h

111  Gilberto Simoni  Saunier Duval-Prodir06h 15' 49"+  00:52:13 =32,010  km/h

112  Matteo Tosatto  Quick Step-Innergetic06h 15' 49"+  00:52:13 =32,010  km/h

113  Rubén Lobato  Saunier Duval-Prodir06h 15' 49"+  00:52:13 =32,010  km/h

114  Cédric Vasseur  Quick Step-Innergetic06h 15' 49"+  00:52:13 =32,010  km/h

115  Julian Dean  Credit Agricole06h 15' 49"+  00:52:13 =32,010  km/h

116  Moisés Dueñas  Agritubel06h 15' 49"+  00:52:13 =32,010  km/h

117  Iván Parra  Cofidis Credit Par Telephone06h 15' 49"+  00:52:13 =32,010  km/h

118  Samuel Dumoulin  AG2R-Decathlon06h 15' 49"+  00:52:13 =32,010  km/h

119  Victor Hugo Peña  Phonak Hearing Systems06h 15' 49"+  00:52:13 =32,010  km/h

120  Peter Wrolich  Gerolsteiner06h 15' 49"+  00:52:13 =32,010  km/h

121  Iñigo Landaluze  Euskaltel-Euskadi06h 15' 49"+  00:52:13 =32,010  km/h

122  David Moncoutié  Cofidis Credit Par Telephone06h 15' 49"+  00:52:13 =32,010  km/h

123  Arnaud Coyot  Cofidis Credit Par Telephone06h 15' 49"+  00:52:13 =32,010  km/h

124  Bradley Wiggins  Cofidis Credit Par Telephone06h 15' 49"+  00:52:13 =32,010  km/h

125  Ronny Scholz  Gerolsteiner06h 15' 49"+  00:52:13 =32,010  km/h

126  Christophe Mengin  Francaise Des Jeux06h 15' 49"+  00:52:13 =32,010  km/h

127  Wim Vansevenant  Davitamon-Lotto06h 15' 49"+  00:52:13 =32,010  km/h

128  Vladimir Karpets  Illes Balears-Caisse d Epargne06h 15' 49"+  00:52:13 =32,010  km/h

129  Juan Antonio Flecha  Rabobank06h 15' 49"+  00:52:13 =32,010  km/h

130  David Zabriskie  CSC06h 15' 49"+  00:52:13 =32,010  km/h

131  Óscar Freire  Rabobank06h 15' 49"+  00:52:13 =32,010  km/h

132  Aitor Hernández  Euskaltel-Euskadi06h 15' 49"+  00:52:13 =32,010  km/h

133  Sébastien Hinault  Credit Agricole06h 15' 49"+  00:52:13 =32,010  km/h

134  Eduardo Gonzalo  Agritubel06h 15' 49"+  00:52:13 =32,010  km/h

135  Florent Brard  Illes Balears-Caisse d Epargne06h 15' 49"+  00:52:13 =32,010  km/h

136  Thor Hushovd  Credit Agricole06h 15' 49"+  00:52:13 =32,010  km/h

137  Cédric Coutouly  Agritubel06h 15' 49"+  00:52:13 =32,010  km/h

138  José Garcia Acosta  Illes Balears-Caisse d Epargne06h 15' 49"+  00:52:13 =32,010  km/h

139  José-Luis Rubiera  Discovery Channel06h 15' 49"+  00:52:13 =32,010  km/h

140  Gert Steegmans  Davitamon-Lotto06h 15' 49"+  00:52:13 =32,010  km/h

141  Nicolas Portal  Illes Balears-Caisse d Epargne06h 15' 49"+  00:52:13 =32,010  km/h

142  Francisco Ventoso  Saunier Duval-Prodir06h 15' 49"+  00:52:13 =32,010  km/h

143  Christophe Rinero  Saunier Duval-Prodir06h 15' 49"+  00:52:13 =32,010  km/h


Withdrawls: 4
 RiderTeamReason
106   José Rujano Quick Step-InnergeticDid not start
75   Miguel Angel Martín Phonak Hearing SystemsDid not finish
144   José Ángel Gomez Saunier Duval-ProdirDid not finish
191   Juan Miguel Mercado AgritubelDid not finish
Todays birthdays.

1869 • Adolphe Dorion
1884 • Achille Germain
1886 • Emile Eigeldinger
1896 • Andre Léger
1907 • Frans Dictus
1921 • Alberto Ghirardi
1934 • Joseph Planckaert
1945 • Leif Mortensen
1952 • Alex Van Linden
1960 • Roberto Bressan
1960 • Bernard Chesneau
1962 • Paul Watson
1963 • Juan Rozas
1965 • Jean-Pierre Heynderickx
1967 • José-Manuel Oliveira
1970 • Wilfried Nelissen
1980 • Nick Nuyens
1996 • Jai Hindley

 

Optimized for Chrome - Edge
and Opera browsers.